QPF
0.01 0.01 0.02 0.02 0.05 0.08 0.07 0.07 0.07 0.06 0.07 0.07 0.04 0.03 0.03 0.03 0.03 0.02 0.02 0.01 0.02 0.02 0.03 0.03 0.02 0.02 0.02 0.02 0.02 0.01 0.01 0.01 0.02 0.02 0.01 0.01 0.01 0.01 0.01 0.01 0.02 0.02 0.02
0.01 0.01 0.02 0.03 0.05 0.08 0.08 0.07 0.06 0.05 0.06 0.06 0.05 0.03 0.03 0.02 0.02 0.02 0.02 0.02 0.02 0.02 0.02 0.02 0.03 0.01 0.02 0.02 0.02 0.01 0.01 0.01 0.01 0.01 0.00 0.01 0.02 0.02 0.01 0.02 0.02 0.02 0.03
0.00 0.01 0.02 0.04 0.05 0.07 0.08 0.07 0.05 0.04 0.06 0.06 0.05 0.04 0.03 0.02 0.02 0.02 0.03 0.03 0.02 0.02 0.02 0.02 0.03 0.01 0.01 0.01 0.01 0.01 0.01 0.01 0.00 0.00 0.00 0.01 0.02 0.02 0.02 0.02 0.03 0.02 0.01
0.00 0.01 0.02 0.04 0.05 0.07 0.09 0.07 0.04 0.04 0.05 0.06 0.06 0.04 0.03 0.03 0.03 0.03 0.04 0.03 0.03 0.02 0.02 0.02 0.03 0.01 0.01 0.01 0.01 0.01 0.01 0.01 0.00 0.00 0.00 0.01 0.01 0.03 0.03 0.02 0.02 0.01 0.01
0.00 0.01 0.02 0.04 0.05 0.07 0.07 0.07 0.05 0.04 0.05 0.06 0.06 0.05 0.04 0.04 0.05 0.03 0.04 0.03 0.03 0.03 0.02 0.01 0.02 0.02 0.01 0.01 0.01 0.01 0.00 0.00 0.00 0.00 0.00 0.01 0.02 0.04 0.05 0.03 0.01 0.01 0.01
0.00 0.01 0.02 0.03 0.05 0.07 0.08 0.07 0.07 0.06 0.05 0.06 0.06 0.05 0.05 0.05 0.05 0.04 0.04 0.03 0.03 0.03 0.02 0.01 0.02 0.01 0.01 0.01 0.01 0.00 0.00 0.00 0.00 0.00 0.00 0.00 0.01 0.03 0.05 0.03 0.02 0.01 0.01
0.01 0.01 0.02 0.03 0.04 0.06 0.09 0.09 0.10 0.10 0.07 0.04 0.05 0.06 0.05 0.04 0.05 0.04 0.03 0.03 0.03 0.02 0.03 0.02 0.02 0.01 0.01 0.01 0.00 0.00 0.00 0.00 0.00 0.00 0.00 0.01 0.02 0.04 0.04 0.03 0.02 0.01 0.01
0.01 0.02 0.03 0.04 0.05 0.06 0.08 0.09 0.10 0.10 0.07 0.05 0.04 0.04 0.04 0.03 0.04 0.04 0.02 0.03 0.03 0.03 0.03 0.03 0.03 0.02 0.02 0.01 0.00 0.00 0.00 0.00 0.00 0.00 0.01 0.01 0.01 0.02 0.02 0.02 0.02 0.01 0.01
0.01 0.02 0.03 0.04 0.05 0.06 0.08 0.09 0.09 0.08 0.07 0.06 0.04 0.04 0.04 0.03 0.04 0.04 0.03 0.02 0.02 0.03 0.03 0.03 0.03 0.03 0.03 0.02 0.01 0.01 0.00 0.00 0.00 0.00 0.00 0.01 0.01 0.02 0.02 0.02 0.02 0.01 0.01
0.01 0.02 0.03 0.04 0.05 0.06 0.07 0.08 0.08 0.07 0.06 0.05 0.05 0.04 0.04 0.04 0.03 0.04 0.03 0.03 0.02 0.02 0.03 0.03 0.03 0.02 0.02 0.02 0.01 0.00 0.00 0.00 0.00 0.00 0.01 0.01 0.01 0.02 0.02 0.02 0.02 0.01 0.01
0.03 0.03 0.03 0.05 0.05 0.05 0.06 0.06 0.07 0.06 0.05 0.05 0.04 0.04 0.04 0.05 0.05 0.04 0.03 0.02 0.02 0.02 0.03 0.03 0.03 0.01 0.01 0.01 0.01 0.01 0.00 0.00 0.00 0.00 0.01 0.01 0.02 0.02 0.02 0.02 0.01 0.01 0.01
0.04 0.04 0.04 0.05 0.05 0.05 0.05 0.06 0.07 0.06 0.05 0.04 0.05 0.04 0.04 0.06 0.07 0.06 0.04 0.02 0.02 0.02 0.03 0.03 0.03 0.01 0.01 0.02 0.01 0.01 0.00 0.00 0.00 0.01 0.01 0.01 0.02 0.02 0.02 0.02 0.02 0.01 0.01
0.05 0.05 0.05 0.06 0.06 0.06 0.06 0.05 0.05 0.05 0.05 0.04 0.04 0.05 0.04 0.05 0.05 0.05 0.04 0.03 0.03 0.03 0.02 0.02 0.02 0.01 0.01 0.01 0.01 0.01 0.01 0.00 0.00 0.01 0.01 0.01 0.03 0.03 0.03 0.03 0.01 0.01 0.01
0.05 0.05 0.06 0.06 0.08 0.09 0.07 0.05 0.04 0.04 0.04 0.03 0.03 0.05 0.05 0.05 0.04 0.03 0.03 0.03 0.03 0.03 0.03 0.02 0.02 0.02 0.01 0.01 0.01 0.01 0.02 0.01 0.01 0.01 0.02 0.01 0.03 0.04 0.04 0.04 0.03 0.02 0.02
0.04 0.05 0.05 0.06 0.07 0.09 0.08 0.06 0.04 0.04 0.04 0.04 0.03 0.04 0.05 0.07 0.06 0.04 0.03 0.02 0.03 0.03 0.03 0.03 0.02 0.02 0.01 0.01 0.01 0.01 0.01 0.01 0.01 0.01 0.02 0.01 0.02 0.03 0.04 0.05 0.04 0.03 0.02
0.07 0.05 0.05 0.06 0.06 0.07 0.09 0.08 0.05 0.04 0.04 0.04 0.02 0.03 0.05 0.07 0.08 0.07 0.05 0.03 0.02 0.03 0.04 0.04 0.03 0.02 0.02 0.02 0.01 0.01 0.01 0.01 0.01 0.01 0.01 0.02 0.01 0.02 0.03 0.03 0.03 0.04 0.02
0.10 0.09 0.06 0.06 0.05 0.06 0.07 0.08 0.07 0.05 0.05 0.04 0.02 0.02 0.04 0.07 0.08 0.08 0.07 0.05 0.03 0.02 0.03 0.04 0.04 0.04 0.02 0.02 0.02 0.01 0.01 0.01 0.01 0.01 0.01 0.02 0.02 0.02 0.01 0.02 0.02 0.03 0.03
0.05 0.10 0.11 0.08 0.06 0.05 0.06 0.08 0.08 0.06 0.05 0.05 0.04 0.03 0.03 0.07 0.09 0.09 0.08 0.06 0.03 0.02 0.03 0.04 0.04 0.04 0.04 0.02 0.02 0.01 0.01 0.01 0.01 0.01 0.01 0.02 0.02 0.02 0.02 0.01 0.02 0.03 0.04
0.03 0.06 0.12 0.10 0.07 0.06 0.05 0.06 0.08 0.07 0.06 0.05 0.05 0.04 0.04 0.06 0.09 0.10 0.09 0.07 0.06 0.04 0.05 0.06 0.05 0.04 0.03 0.02 0.01 0.01 0.01 0.01 0.01 0.01 0.02 0.02 0.01 0.01 0.02 0.02 0.02 0.03 0.04
0.03 0.05 0.10 0.11 0.09 0.08 0.07 0.07 0.09 0.08 0.06 0.05 0.05 0.05 0.04 0.05 0.09 0.12 0.10 0.09 0.06 0.05 0.05 0.08 0.09 0.06 0.03 0.02 0.02 0.02 0.02 0.01 0.01 0.02 0.01 0.01 0.01 0.01 0.02 0.03 0.02 0.02 0.03
0.04 0.05 0.09 0.12 0.10 0.09 0.08 0.08 0.10 0.09 0.07 0.06 0.05 0.05 0.04 0.04 0.07 0.12 0.12 0.10 0.07 0.06 0.05 0.06 0.09 0.10 0.06 0.03 0.03 0.03 0.02 0.02 0.01 0.01 0.01 0.01 0.01 0.01 0.02 0.03 0.04 0.03 0.02
0.05 0.05 0.08 0.13 0.12 0.10 0.07 0.08 0.09 0.12 0.09 0.07 0.07 0.06 0.06 0.04 0.05 0.08 0.12 0.11 0.08 0.06 0.06 0.06 0.07 0.09 0.09 0.05 0.03 0.03 0.03 0.03 0.02 0.01 0.01 0.02 0.02 0.02 0.02 0.02 0.04 0.05 0.03
0.06 0.06 0.08 0.12 0.14 0.13 0.08 0.08 0.09 0.12 0.14 0.10 0.07 0.07 0.07 0.07 0.06 0.08 0.11 0.11 0.08 0.06 0.05 0.06 0.07 0.09 0.10 0.08 0.04 0.03 0.03 0.03 0.03 0.02 0.02 0.02 0.02 0.03 0.03 0.03 0.03 0.05 0.05
0.09 0.08 0.09 0.12 0.15 0.17 0.12 0.09 0.08 0.10 0.14 0.14 0.11 0.08 0.08 0.09 0.08 0.09 0.12 0.11 0.09 0.07 0.05 0.05 0.06 0.09 0.11 0.09 0.06 0.04 0.03 0.03 0.03 0.03 0.03 0.03 0.03 0.03 0.04 0.04 0.04 0.04 0.05
0.10 0.10 0.10 0.11 0.15 0.18 0.19 0.12 0.09 0.10 0.12 0.14 0.14 0.12 0.10 0.08 0.09 0.10 0.12 0.14 0.11 0.08 0.06 0.04 0.04 0.06 0.09 0.09 0.07 0.05 0.04 0.03 0.03 0.03 0.04 0.04 0.04 0.03 0.03 0.03 0.04 0.04 0.04
0.08 0.08 0.09 0.09 0.12 0.17 0.23 0.21 0.13 0.10 0.12 0.13 0.15 0.15 0.11 0.09 0.07 0.07 0.11 0.13 0.12 0.08 0.06 0.04 0.03 0.04 0.06 0.08 0.07 0.06 0.05 0.04 0.03 0.03 0.03 0.03 0.04 0.03 0.02 0.02 0.02 0.03 0.03
MSLP
1018.47 1018.12 1017.55 1016.80 1015.97 1015.16 1014.46 1013.95 1013.66 1013.57 1013.66 1013.86 1014.13 1014.41 1014.68 1014.94 1015.18 1015.41 1015.64 1015.88 1016.12 1016.36 1016.61 1016.84 1017.08 1017.30 1017.51 1017.72 1017.91 1018.07 1018.22 1018.35 1018.45 1018.55 1018.64 1018.74 1018.83 1018.92 1018.99 1019.05 1019.09 1019.11 1019.13
1019.40 1018.93 1018.22 1017.33 1016.36 1015.43 1014.64 1014.07 1013.73 1013.62 1013.71 1013.92 1014.20 1014.50 1014.79 1015.05 1015.28 1015.49 1015.69 1015.90 1016.12 1016.36 1016.62 1016.90 1017.19 1017.48 1017.76 1018.02 1018.24 1018.42 1018.56 1018.66 1018.74 1018.82 1018.91 1019.01 1019.13 1019.26 1019.39 1019.49 1019.56 1019.60 1019.63
1020.11 1019.52 1018.69 1017.68 1016.61 1015.61 1014.76 1014.15 1013.79 1013.68 1013.77 1013.99 1014.29 1014.60 1014.89 1015.15 1015.37 1015.56 1015.73 1015.91 1016.10 1016.33 1016.60 1016.91 1017.24 1017.60 1017.94 1018.25 1018.51 1018.71 1018.84 1018.92 1018.98 1019.04 1019.11 1019.23 1019.38 1019.55 1019.72 1019.88 1020.00 1020.08 1020.14
1020.63 1019.94 1019.00 1017.92 1016.79 1015.74 1014.86 1014.23 1013.87 1013.75 1013.83 1014.05 1014.35 1014.66 1014.96 1015.22 1015.44 1015.62 1015.78 1015.93 1016.11 1016.32 1016.59 1016.92 1017.29 1017.69 1018.09 1018.45 1018.74 1018.96 1019.09 1019.16 1019.19 1019.23 1019.30 1019.42 1019.59 1019.80 1020.03 1020.24 1020.42 1020.55 1020.65
1020.99 1020.22 1019.23 1018.10 1016.94 1015.88 1015.00 1014.36 1013.97 1013.82 1013.88 1014.07 1014.34 1014.65 1014.96 1015.24 1015.48 1015.68 1015.85 1016.01 1016.19 1016.40 1016.66 1016.99 1017.38 1017.80 1018.23 1018.62 1018.94 1019.17 1019.32 1019.38 1019.41 1019.44 1019.50 1019.63 1019.82 1020.06 1020.33 1020.59 1020.82 1021.01 1021.16
1021.26 1020.44 1019.42 1018.29 1017.15 1016.10 1015.22 1014.55 1014.12 1013.91 1013.89 1014.02 1014.25 1014.54 1014.86 1015.17 1015.46 1015.73 1015.96 1016.16 1016.36 1016.58 1016.84 1017.16 1017.54 1017.96 1018.39 1018.80 1019.14 1019.39 1019.54 1019.61 1019.64 1019.68 1019.75 1019.88 1020.09 1020.36 1020.66 1020.97 1021.24 1021.47 1021.67
1021.48 1020.64 1019.63 1018.53 1017.43 1016.40 1015.52 1014.83 1014.32 1014.01 1013.88 1013.91 1014.06 1014.32 1014.64 1015.01 1015.39 1015.75 1016.07 1016.35 1016.60 1016.85 1017.11 1017.42 1017.77 1018.17 1018.59 1018.99 1019.33 1019.59 1019.76 1019.86 1019.91 1019.96 1020.05 1020.20 1020.43 1020.73 1021.05 1021.39 1021.69 1021.95 1022.18
1021.68 1020.84 1019.87 1018.83 1017.79 1016.80 1015.92 1015.17 1014.57 1014.13 1013.85 1013.74 1013.79 1014.00 1014.33 1014.76 1015.23 1015.72 1016.16 1016.55 1016.88 1017.17 1017.45 1017.73 1018.05 1018.41 1018.80 1019.18 1019.52 1019.79 1019.98 1020.11 1020.19 1020.28 1020.40 1020.58 1020.84 1021.16 1021.51 1021.86 1022.18 1022.45 1022.69
1021.87 1021.05 1020.13 1019.17 1018.20 1017.26 1016.38 1015.57 1014.86 1014.26 1013.81 1013.54 1013.47 1013.61 1013.94 1014.42 1015.00 1015.62 1016.20 1016.71 1017.13 1017.48 1017.77 1018.04 1018.32 1018.64 1018.99 1019.34 1019.67 1019.95 1020.17 1020.33 1020.47 1020.60 1020.77 1021.00 1021.30 1021.64 1022.01 1022.37 1022.70 1022.97 1023.21
1022.04 1021.24 1020.39 1019.51 1018.62 1017.73 1016.85 1015.98 1015.14 1014.39 1013.76 1013.33 1013.13 1013.20 1013.51 1014.04 1014.71 1015.45 1016.16 1016.78 1017.30 1017.69 1018.00 1018.27 1018.53 1018.81 1019.12 1019.45 1019.77 1020.06 1020.31 1020.52 1020.71 1020.90 1021.13 1021.41 1021.75 1022.13 1022.52 1022.90 1023.23 1023.50 1023.72
1022.19 1021.41 1020.62 1019.82 1019.00 1018.16 1017.27 1016.34 1015.39 1014.49 1013.70 1013.11 1012.79 1012.77 1013.07 1013.63 1014.37 1015.20 1016.01 1016.74 1017.33 1017.78 1018.11 1018.38 1018.63 1018.89 1019.18 1019.49 1019.82 1020.13 1020.41 1020.66 1020.90 1021.15 1021.43 1021.77 1022.16 1022.58 1023.01 1023.40 1023.74 1024.02 1024.23
1022.31 1021.54 1020.80 1020.07 1019.31 1018.50 1017.59 1016.60 1015.55 1014.52 1013.58 1012.86 1012.44 1012.36 1012.62 1013.20 1013.98 1014.88 1015.76 1016.56 1017.20 1017.70 1018.07 1018.35 1018.60 1018.87 1019.16 1019.48 1019.82 1020.16 1020.47 1020.76 1021.04 1021.34 1021.68 1022.07 1022.50 1022.96 1023.43 1023.85 1024.21 1024.50 1024.72
1022.39 1021.64 1020.94 1020.25 1019.53 1018.72 1017.78 1016.72 1015.58 1014.43 1013.38 1012.56 1012.05 1011.92 1012.17 1012.75 1013.56 1014.49 1015.42 1016.26 1016.95 1017.48 1017.88 1018.19 1018.47 1018.77 1019.09 1019.45 1019.82 1020.19 1020.53 1020.86 1021.17 1021.51 1021.88 1022.30 1022.77 1023.27 1023.76 1024.22 1024.62 1024.93 1025.16
1022.44 1021.71 1021.03 1020.37 1019.64 1018.80 1017.81 1016.67 1015.43 1014.18 1013.04 1012.15 1011.59 1011.44 1011.68 1012.26 1013.09 1014.04 1015.00 1015.86 1016.58 1017.14 1017.58 1017.95 1018.28 1018.63 1019.02 1019.43 1019.85 1020.26 1020.64 1020.99 1021.33 1021.67 1022.06 1022.49 1022.97 1023.49 1024.02 1024.51 1024.94 1025.29 1025.56
1022.48 1021.77 1021.10 1020.42 1019.66 1018.76 1017.68 1016.43 1015.09 1013.75 1012.55 1011.60 1011.03 1010.87 1011.12 1011.72 1012.57 1013.54 1014.51 1015.40 1016.14 1016.74 1017.24 1017.66 1018.07 1018.51 1018.97 1019.46 1019.95 1020.41 1020.82 1021.20 1021.54 1021.88 1022.25 1022.68 1023.16 1023.68 1024.21 1024.73 1025.20 1025.59 1025.91
1022.51 1021.82 1021.15 1020.43 1019.59 1018.58 1017.38 1016.02 1014.56 1013.14 1011.87 1010.91 1010.33 1010.20 1010.48 1011.12 1012.00 1012.99 1013.99 1014.90 1015.68 1016.33 1016.88 1017.39 1017.89 1018.42 1018.98 1019.55 1020.12 1020.64 1021.10 1021.49 1021.84 1022.16 1022.51 1022.90 1023.35 1023.85 1024.38 1024.90 1025.39 1025.83 1026.20
1022.53 1021.85 1021.16 1020.38 1019.44 1018.31 1016.97 1015.47 1013.90 1012.38 1011.07 1010.09 1009.53 1009.43 1009.76 1010.44 1011.37 1012.40 1013.44 1014.39 1015.22 1015.93 1016.56 1017.15 1017.74 1018.37 1019.03 1019.70 1020.34 1020.93 1021.44 1021.85 1022.21 1022.52 1022.84 1023.19 1023.59 1024.05 1024.55 1025.06 1025.56 1026.02 1026.43
1022.52 1021.84 1021.12 1020.27 1019.22 1017.96 1016.48 1014.84 1013.16 1011.56 1010.20 1009.22 1008.68 1008.61 1009.00 1009.73 1010.71 1011.80 1012.88 1013.89 1014.78 1015.56 1016.27 1016.94 1017.62 1018.34 1019.09 1019.84 1020.56 1021.22 1021.78 1022.24 1022.61 1022.92 1023.21 1023.53 1023.89 1024.30 1024.75 1025.24 1025.72 1026.19 1026.63
1022.44 1021.76 1021.00 1020.08 1018.93 1017.55 1015.95 1014.20 1012.42 1010.76 1009.37 1008.37 1007.85 1007.81 1008.23 1009.02 1010.04 1011.19 1012.33 1013.40 1014.36 1015.21 1015.99 1016.74 1017.50 1018.28 1019.10 1019.92 1020.71 1021.43 1022.05 1022.56 1022.97 1023.31 1023.61 1023.90 1024.23 1024.59 1025.00 1025.44 1025.90 1026.36 1026.80
1022.30 1021.59 1020.78 1019.79 1018.57 1017.11 1015.43 1013.62 1011.78 1010.08 1008.66 1007.66 1007.13 1007.11 1007.54 1008.35 1009.41 1010.59 1011.79 1012.92 1013.94 1014.86 1015.70 1016.51 1017.32 1018.15 1019.02 1019.88 1020.72 1021.50 1022.18 1022.76 1023.23 1023.62 1023.95 1024.26 1024.57 1024.91 1025.28 1025.67 1026.09 1026.52 1026.96
1022.06 1021.30 1020.44 1019.41 1018.16 1016.67 1014.97 1013.14 1011.30 1009.60 1008.17 1007.15 1006.61 1006.56 1006.98 1007.77 1008.83 1010.03 1011.26 1012.43 1013.50 1014.48 1015.37 1016.22 1017.05 1017.91 1018.78 1019.67 1020.54 1021.36 1022.11 1022.76 1023.32 1023.79 1024.19 1024.55 1024.88 1025.22 1025.56 1025.92 1026.29 1026.69 1027.10
1021.76 1020.92 1020.01 1018.95 1017.70 1016.23 1014.58 1012.81 1011.02 1009.35 1007.94 1006.91 1006.33 1006.24 1006.59 1007.32 1008.33 1009.51 1010.73 1011.92 1013.03 1014.04 1014.97 1015.84 1016.68 1017.52 1018.39 1019.26 1020.14 1021.00 1021.80 1022.54 1023.20 1023.78 1024.28 1024.71 1025.10 1025.46 1025.80 1026.14 1026.48 1026.84 1027.22
1021.44 1020.49 1019.52 1018.45 1017.23 1015.84 1014.29 1012.63 1010.95 1009.35 1007.98 1006.94 1006.32 1006.14 1006.39 1007.01 1007.93 1009.03 1010.21 1011.39 1012.51 1013.54 1014.48 1015.35 1016.18 1017.00 1017.83 1018.68 1019.55 1020.42 1021.28 1022.09 1022.85 1023.55 1024.17 1024.71 1025.18 1025.60 1025.96 1026.30 1026.62 1026.95 1027.30
1021.14 1020.08 1019.04 1017.96 1016.80 1015.52 1014.12 1012.61 1011.06 1009.58 1008.26 1007.22 1006.54 1006.25 1006.36 1006.83 1007.61 1008.59 1009.69 1010.83 1011.92 1012.95 1013.89 1014.76 1015.58 1016.37 1017.16 1017.98 1018.82 1019.69 1020.57 1021.45 1022.31 1023.12 1023.86 1024.52 1025.09 1025.58 1025.99 1026.35 1026.67 1026.98 1027.31
1020.93 1019.75 1018.64 1017.56 1016.46 1015.30 1014.05 1012.72 1011.34 1009.98 1008.74 1007.70 1006.95 1006.53 1006.48 1006.77 1007.36 1008.19 1009.18 1010.23 1011.29 1012.30 1013.24 1014.11 1014.91 1015.68 1016.43 1017.21 1018.02 1018.87 1019.77 1020.69 1021.62 1022.52 1023.37 1024.14 1024.82 1025.39 1025.86 1026.26 1026.59 1026.90 1027.21
1020.86 1019.56 1018.38 1017.30 1016.26 1015.21 1014.11 1012.95 1011.74 1010.52 1009.34 1008.31 1007.49 1006.95 1006.71 1006.80 1007.20 1007.84 1008.68 1009.63 1010.62 1011.60 1012.54 1013.41 1014.21 1014.96 1015.70 1016.44 1017.22 1018.05 1018.94 1019.88 1020.85 1021.81 1022.74 1023.60 1024.36 1025.02 1025.56 1026.00 1026.37 1026.69 1027.01
Thickness
5708 5708 5707 5709 5711 5712 5713 5714 5714 5715 5715 5715 5716 5716 5717 5717 5717 5717 5717 5718 5718 5718 5718 5718 5718 5718 5718 5718 5718 5718 5718 5718 5718 5718 5717 5717 5717 5716 5715 5715 5715 5714 5712
5705 5705 5703 5705 5707 5709 5709 5710 5711 5711 5712 5712 5713 5713 5713 5714 5714 5715 5715 5715 5715 5715 5715 5715 5715 5715 5715 5715 5715 5714 5714 5714 5714 5714 5715 5714 5713 5713 5712 5711 5711 5710 5709
5702 5701 5700 5702 5703 5704 5705 5706 5707 5708 5708 5708 5709 5709 5710 5711 5711 5711 5712 5712 5712 5712 5712 5712 5712 5711 5711 5711 5711 5711 5711 5711 5711 5712 5713 5713 5711 5709 5709 5708 5707 5706 5705
5698 5698 5697 5697 5699 5700 5701 5702 5703 5703 5704 5705 5705 5706 5706 5707 5707 5708 5708 5708 5708 5708 5708 5708 5708 5708 5707 5707 5708 5707 5707 5708 5708 5710 5711 5710 5708 5706 5705 5704 5703 5703 5702
5693 5693 5692 5692 5694 5695 5696 5697 5698 5699 5700 5701 5701 5702 5702 5703 5704 5704 5704 5704 5704 5704 5704 5704 5704 5704 5704 5704 5704 5704 5704 5704 5706 5707 5707 5706 5705 5703 5702 5701 5700 5699 5698
5687 5687 5687 5687 5688 5689 5690 5692 5693 5694 5695 5696 5696 5697 5698 5699 5699 5700 5700 5700 5700 5700 5700 5700 5700 5700 5700 5700 5700 5700 5700 5701 5703 5704 5704 5703 5701 5699 5699 5698 5697 5696 5695
5681 5681 5681 5681 5682 5684 5685 5687 5688 5689 5690 5690 5691 5692 5693 5694 5695 5695 5695 5696 5696 5696 5697 5696 5696 5696 5696 5696 5696 5696 5697 5698 5701 5701 5700 5699 5697 5696 5695 5694 5693 5692 5691
5673 5674 5674 5674 5676 5677 5678 5680 5682 5683 5684 5685 5686 5687 5688 5689 5690 5690 5691 5692 5692 5692 5692 5693 5692 5692 5692 5692 5692 5693 5693 5695 5696 5697 5696 5695 5693 5692 5691 5691 5690 5689 5688
5664 5666 5667 5667 5669 5670 5672 5674 5675 5676 5678 5679 5680 5681 5683 5684 5685 5686 5686 5687 5687 5688 5688 5688 5688 5688 5688 5688 5688 5688 5689 5691 5693 5693 5692 5691 5689 5688 5688 5687 5686 5685 5684
5655 5657 5659 5660 5662 5663 5664 5666 5667 5669 5671 5673 5674 5675 5676 5678 5679 5680 5681 5682 5682 5683 5684 5684 5684 5684 5684 5684 5684 5684 5685 5687 5689 5688 5688 5686 5685 5685 5684 5683 5682 5681 5680
5645 5648 5650 5652 5654 5656 5657 5658 5660 5662 5664 5666 5667 5669 5670 5672 5673 5674 5675 5676 5677 5678 5679 5679 5679 5679 5679 5679 5680 5681 5682 5684 5685 5684 5683 5682 5681 5681 5680 5679 5678 5678 5677
5634 5637 5640 5643 5645 5648 5650 5651 5653 5655 5656 5659 5661 5662 5664 5666 5668 5669 5669 5670 5671 5672 5673 5673 5674 5674 5675 5676 5675 5677 5679 5680 5681 5680 5678 5677 5677 5677 5676 5675 5675 5674 5673
5622 5626 5629 5632 5635 5638 5641 5643 5645 5647 5650 5652 5654 5656 5658 5660 5661 5663 5664 5664 5665 5666 5667 5668 5669 5671 5672 5672 5673 5674 5675 5676 5676 5675 5674 5673 5673 5673 5673 5672 5671 5671 5670
5610 5614 5618 5621 5625 5628 5632 5634 5637 5640 5642 5644 5646 5648 5651 5653 5655 5656 5659 5659 5660 5662 5662 5664 5665 5666 5668 5668 5669 5670 5670 5671 5671 5671 5669 5669 5669 5669 5669 5668 5668 5667 5666
5597 5601 5605 5609 5613 5616 5621 5624 5628 5631 5634 5636 5638 5640 5643 5645 5648 5650 5652 5653 5655 5656 5657 5658 5659 5661 5663 5663 5664 5665 5665 5666 5666 5666 5665 5664 5664 5664 5664 5664 5664 5663 5663
5584 5588 5592 5597 5601 5605 5609 5613 5617 5621 5624 5627 5629 5632 5634 5637 5639 5642 5644 5647 5648 5650 5652 5653 5654 5655 5657 5658 5658 5659 5660 5660 5661 5661 5660 5659 5659 5659 5659 5660 5659 5659 5658
5571 5575 5580 5584 5588 5593 5597 5602 5606 5610 5613 5617 5620 5623 5625 5628 5631 5633 5636 5639 5641 5643 5645 5646 5647 5649 5650 5651 5652 5653 5653 5654 5655 5655 5655 5655 5654 5654 5654 5654 5655 5655 5654
5558 5563 5567 5572 5576 5580 5585 5589 5595 5599 5602 5606 5610 5613 5616 5619 5622 5625 5628 5631 5633 5635 5638 5640 5641 5643 5644 5645 5646 5646 5647 5647 5649 5650 5650 5650 5650 5650 5649 5649 5649 5649 5649
5546 5550 5555 5560 5564 5569 5573 5577 5583 5587 5591 5596 5600 5603 5606 5609 5613 5616 5619 5623 5625 5628 5631 5632 5634 5636 5636 5637 5638 5638 5640 5641 5642 5643 5644 5645 5644 5645 5645 5644 5644 5644 5644
5532 5537 5542 5547 5551 5557 5561 5566 5570 5575 5580 5585 5590 5593 5597 5600 5603 5607 5611 5614 5617 5620 5622 5624 5626 5627 5629 5629 5630 5630 5632 5633 5635 5637 5638 5639 5639 5639 5640 5640 5640 5639 5639
5519 5523 5529 5534 5539 5544 5549 5553 5559 5564 5568 5573 5578 5582 5586 5590 5593 5597 5602 5605 5609 5612 5614 5617 5618 5619 5620 5622 5623 5622 5623 5626 5628 5630 5631 5632 5633 5634 5634 5634 5635 5634 5634
5505 5510 5516 5522 5527 5532 5537 5541 5546 5551 5556 5561 5566 5571 5575 5579 5583 5587 5592 5596 5600 5603 5605 5608 5610 5612 5612 5615 5618 5618 5619 5619 5621 5623 5625 5626 5628 5628 5629 5629 5629 5629 5629
5492 5497 5502 5508 5514 5519 5524 5528 5533 5538 5543 5548 5555 5559 5564 5568 5573 5577 5582 5586 5591 5594 5597 5599 5602 5605 5607 5608 5611 5615 5615 5618 5617 5617 5618 5620 5621 5623 5623 5623 5623 5624 5624
5477 5482 5488 5495 5502 5507 5511 5517 5522 5527 5532 5538 5542 5548 5552 5557 5562 5567 5571 5576 5581 5585 5588 5591 5594 5598 5600 5602 5603 5607 5612 5615 5613 5612 5612 5613 5614 5616 5618 5618 5618 5618 5618
5464 5469 5475 5482 5488 5494 5500 5505 5510 5516 5520 5525 5530 5536 5541 5546 5551 5556 5561 5565 5570 5575 5579 5582 5585 5589 5593 5596 5598 5599 5601 5604 5608 5609 5609 5608 5608 5609 5611 5611 5612 5612 5612
5451 5457 5462 5469 5476 5482 5487 5492 5497 5503 5508 5513 5518 5524 5530 5535 5540 5544 5549 5554 5560 5565 5570 5573 5576 5580 5584 5588 5592 5595 5597 5599 5601 5604 5604 5603 5603 5603 5603 5604 5606 5606 5606